CAPE
332 69 52 73 128 190 203 260 416 428 651 1058 1309 1097 1232 1070 1198 1397 1555 1932 2166 2373 2530 2472 2383 2301 2424 2472 2461 2335 2103 1969 2078 2403 2401 2438 2431 2600 2630 2357 2411 2750 2361 2381 2564 2486 2808 2561 2544 3288 3564 3800 3720 4109 4187 3957 3917 3309 3767 4597 4132 3769 3903
433 82 40 60 143 195 248 356 460 442 740 966 1175 1125 1179 1164 1384 1572 1727 2004 2181 2236 2362 2301 2405 2441 2384 2462 2460 2535 2488 2103 2152 2143 2315 2504 2775 2761 2581 2700 2638 2808 3040 2774 2759 3010 3147 2963 3081 3424 3609 3561 3421 4048 4018 3956 3652 3422 3380 4699 4037 4360 4218
606 134 36 55 137 272 394 404 538 477 639 768 830 888 1108 1378 1586 1853 1965 2001 2227 2201 2317 2231 2466 2392 2417 2502 2434 2571 2608 2370 2255 2266 2180 2314 2716 2258 2463 2577 2573 2502 2551 2630 2902 2877 2890 2835 3211 3438 3367 3259 2998 3634 4352 3760 3592 3488 3802 4301 3763 3461 4726
689 78 62 143 256 420 539 625 660 644 796 832 693 788 1218 1624 1796 2277 2348 2157 2094 2142 2287 2119 2203 2195 2318 2421 2474 2564 2678 2455 2284 2192 1852 1974 2166 2378 2487 2618 2339 2526 2532 2597 2671 2410 2448 2651 3122 3544 3334 3449 3503 3409 3604 3719 3366 3419 3553 4450 3747 3481 4118
505 236 198 260 432 774 790 777 892 989 977 1120 1161 990 1380 1860 2086 2441 2364 1871 1934 1994 1936 2017 1839 1687 1898 2087 2113 2191 2320 2238 2141 2050 2072 2022 2316 2456 2378 2378 2395 2283 2400 2450 2620 2958 2811 2924 2748 3041 3457 3679 3484 3521 3352 3512 3168 3482 3750 4058 3622 3248 3188
524 398 229 462 660 742 647 656 894 1175 1261 1516 1556 1426 1427 1991 1968 2119 2213 1812 1776 1759 1787 1748 1597 1708 1862 1928 1928 1789 2030 2128 2133 2168 2031 2307 2620 2420 2352 2322 2201 2311 2208 2389 2528 2612 2840 2627 2635 2668 2794 2769 2729 2620 2797 3005 2764 2759 3252 3790 3542 3107 2850
816 1031 616 690 666 683 674 653 650 1122 1489 1652 1764 1729 1516 2003 1904 1699 1766 1757 2024 1810 1585 1550 1520 1696 1963 1999 2022 1981 2034 1972 2065 1930 1868 2071 2271 2426 2353 2350 2311 2141 2179 2496 2513 2497 2524 2691 2673 2855 2700 2488 2648 2446 2707 3346 3328 2844 3105 3569 4205 3761 3075
425 825 542 478 420 382 579 674 651 828 1528 1443 1593 1763 1778 1862 2013 1759 1644 1600 1975 1514 1632 1498 1649 1841 2174 2254 2068 1902 2107 2032 1886 1842 1754 1791 2157 2058 1891 2199 2374 2434 2551 2490 2702 2618 2453 2682 2580 2641 2713 2701 2772 2867 2805 3274 3749 3159 2855 3333 3552 3438 3021
879 847 781 524 366 462 714 884 905 993 1515 1510 1484 1766 1900 1955 2018 1925 1983 2015 2268 2086 1941 1691 1837 2096 2474 2629 2320 2314 2184 2178 1968 1904 1703 1695 1872 1766 1572 1870 2088 2454 2558 2310 2274 2585 2420 2494 2324 2602 3173 2993 3052 3528 3264 3503 3312 3099 3101 3155 3443 3566 3369
1057 1217 1042 668 642 553 785 952 1119 1234 1533 1856 1783 1933 2046 2046 2270 2287 2358 2559 2731 2734 2589 2459 2404 2672 3262 3181 2647 2600 2308 2217 2036 1785 1790 1724 1858 1846 1762 1594 1900 2218 2276 2260 2067 2086 2395 2259 2370 2832 3340 3358 3417 3597 3519 3435 3242 2930 2828 3244 3343 3296 3574
608 815 925 965 813 794 932 1086 1381 1559 1830 2136 2037 1942 2104 2110 2518 2592 2650 2940 2902 3166 3103 2972 2894 3216 3684 3482 2583 2445 2264 2244 2226 1923 2018 1937 2053 1951 1718 1487 1562 2048 2122 2013 1911 1974 2240 2429 2522 2937 3691 2951 2938 3231 3462 3328 3224 3143 2748 2628 2872 3206 3245
693 710 903 1151 1230 1218 1189 1361 1678 1943 2184 2365 2366 2237 2281 2404 2557 2840 3060 3203 3160 3302 3367 3391 3312 3578 4031 3647 2707 2361 2360 2212 2210 2189 2089 2332 2245 2199 1998 1551 1320 1623 1993 1960 2037 2170 2125 2458 2602 2623 3222 3102 2792 2737 3074 3242 3353 3269 3136 2537 2371 2499 2794
1118 807 924 1523 1602 1615 1516 1554 1805 2113 2322 2428 2553 2515 2557 2572 2700 2936 3152 3276 3294 3259 3441 3633 3632 3811 4073 3985 3082 2543 2434 2212 2259 2322 2263 2464 2536 2384 2180 1894 1563 1484 1736 1918 1923 1972 1889 1984 2405 2585 2859 3180 2968 2534 2584 2888 2725 3227 3511 3013 2738 2692 2767
1291 1617 1744 1858 1811 1782 1579 1400 1580 1777 1972 2152 2350 2680 2615 2661 2688 3023 3249 3196 3244 3274 3384 3434 3564 3885 3993 3868 3590 3168 3055 2732 2415 2723 2812 2872 2990 2966 2443 1828 1764 1921 1786 2006 2053 1842 1700 1778 1887 2234 2514 2579 2618 2687 2629 2876 2807 2913 3162 3032 2347 2236 2288
1123 1269 1530 1588 1879 2013 1856 1679 1485 1407 1545 1808 2063 2317 2495 2626 2733 2870 3062 3078 3081 3116 3288 3456 3610 3934 3890 4034 3974 3853 3780 3630 3231 3398 3705 3600 3678 3525 3059 2405 1763 1904 2164 2188 2127 1744 1595 1624 1670 1820 1885 1985 2216 2361 2257 1901 1967 1933 2144 2452 2338 2335 1921
1046 1156 1360 1742 2012 2081 2078 1981 1814 1543 1403 1454 1733 2095 2335 2446 2542 2582 2726 2966 2953 3110 3295 3447 3578 3885 3924 4039 4164 4132 4164 4352 4105 4156 4469 4451 4419 4145 3387 2659 2015 1829 2147 2268 2070 2010 1928 2013 2036 1930 1958 1975 2117 2166 1837 1740 1669 1304 1628 1684 2241 2090 2218
665 945 1172 1210 1558 2379 2535 2265 2127 1908 1745 1632 1558 1663 1993 2282 2550 2633 2708 2779 2924 3149 3296 3294 3476 3699 3840 3947 4146 4166 4090 4161 4292 4235 4405 3997 3985 4354 3876 3272 3111 2534 2748 2683 2578 2434 2639 2336 2271 2071 1871 1792 1757 1695 1610 1135 1374 1251 695 790 457 1617 2134
802 842 1032 1210 1426 1469 1605 1762 1856 1959 2074 2058 1936 1918 2059 2356 2522 2656 2674 2805 2912 3192 3103 3083 3214 3103 3374 3633 3774 3814 3522 3488 3688 3386 2721 2319 2537 2186 3782 4186 3824 3945 3832 3270 2708 3366 2951 2618 2835 3169 2540 1921 1881 1665 1292 1143 1218 780 543 432 553 468 1594
1138 894 875 1260 1508 1378 1322 1494 1773 1912 1700 1729 1470 1826 2026 2202 2210 2324 2527 2775 3071 2989 3064 2918 3138 3211 3358 3404 3412 3451 3369 3589 3156 2490 2085 2053 1572 2280 2318 3361 3945 3819 3330 3167 3198 3455 3366 3364 2649 1913 2301 2233 2441 2003 1483 986 1026 818 752 658 608 569 765
1044 1055 986 948 961 1061 1180 1352 1325 1382 1569 1580 1695 1560 1680 1722 1760 2080 2293 2526 2626 2892 2924 2738 3025 2955 3045 3113 3088 3142 2769 3135 2849 2026 1876 2112 1600 1782 2127 2733 2844 3018 2561 2569 2993 3041 3213 2861 2644 3096 3040 2966 2973 2752 1408 1128 850 817 782 735 656 622 560
698 630 853 958 883 807 795 840 931 941 1115 1309 1384 1492 1564 1566 1552 1588 1668 1672 1780 1880 2365 2477 2268 2268 2436 2675 2795 2587 2473 2238 2329 1967 1434 1339 1402 1569 1607 1808 2582 2799 2619 2438 2660 2360 1948 2010 2884 3183 3332 3109 2602 2254 1088 868 797 691 762 774 757 712 654
703 712 688 687 690 891 892 888 926 902 970 986 1019 1297 1294 1409 1533 1436 1528 1630 1628 1583 1958 2587 2689 2586 2700 2625 2022 2083 1843 1662 1648 1389 1295 949 890 928 1127 1164 1445 1984 1581 1713 1988 1880 2036 1574 2200 3044 2935 2650 2428 2242 1359 1150 863 815 847 880 865 788 717
639 741 802 709 688 669 793 772 745 759 799 787 858 901 936 914 897 1012 1210 1176 1177 1352 1801 2287 2469 1598 1815 1498 1316 1255 965 955 901 1172 1101 685 467 469 603 714 679 1316 1877 1891 1880 2015 1888 1724 2362 2588 2529 2473 2283 2019 1326 1085 874 786 810 829 801 795 835
836 796 743 628 630 598 616 726 697 690 647 638 633 632 665 692 760 804 824 830 821 803 812 860 854 911 989 951 930 854 818 846 905 1159 1107 438 403 380 589 601 762 1322 1651 1753 1877 1759 1884 2065 1750 1233 1150 1041 985 977 921 897 922 962 978 931 874 802 738
664 747 771 700 651 562 654 651 692 688 665 627 606 576 583 563 534 567 606 597 554 493 539 630 642 639 632 642 592 642 574 688 617 610 470 407 364 390 421 621 764 947 953 975 925 887 871 840 884 772 788 827 897 941 970 908 803 681 555 454 376 318 260
636 620 740 772 685 601 612 529 563 638 554 668 572 542 560 543 506 449 452 348 330 289 248 229 259 288 354 457 426 546 556 641 569 426 314 442 452 398 464 585 632 689 658 648 622 500 570 730 788 794 717 647 587 558 514 445 374 328 270 210 180 156 152
710 666 723 770 666 541 462 452 457 465 422 501 531 407 384 454 466 416 376 360 389 274 232 200 238 192 105 124 204 346 403 535 513 434 356 368 449 444 455 499 471 398 338 315 285 290 311 353 372 354 342 311 278 233 196 180 174 162 146 129 114 106 98
666 665 688 666 599 554 520 500 456 466 410 416 429 357 365 364 354 323 328 363 394 306 220 172 0 67 150 262 264 401 437 329 297 218 198 164 157 211 273 263 273 223 199 236 207 206 237 238 212 192 193 194 201 176 152 140 134 125 108 112 95 69 0
641 646 627 630 559 540 449 448 523 482 432 406 340 339 393 378 328 309 273 328 318 235 118 0 0 0 38 159 231 285 290 246 209 179 154 180 235 275 299 261 214 178 223 274 283 250 234 218 171 147 159 160 153 128 127 142 129 117 39 0 32 28 55
607 568 541 530 492 428 414 448 390 331 317 326 273 300 334 381 338 310 337 266 256 194 0 0 0 105 141 74 43 72 115 107 64 67 81 93 124 156 156 176 143 136 128 163 178 183 179 147 124 116 106 100 94 88 118 129 149 147 151 137 93 0 0
522 515 481 416 374 339 343 340 290 199 105 195 215 192 194 207 269 283 321 278 234 152 0 0 46 40 58 85 90 115 114 74 74 25 44 107 109 90 54 112 112 50 58 101 126 133 96 114 116 67 110 132 161 163 151 152 138 106 90 0 0 0 0
449 436 398 388 350 348 330 305 254 196 48 158 171 204 197 151 138 164 182 185 242 221 114 0 0 0 56 67 53 64 51 60 58 46 0 0 43 19 1 27 52 60 24 49 67 70 67 55 43 48 75 25 52 72 66 54 58 55 0 0 0 0 0
375 346 328 306 277 252 216 186 193 209 233 227 224 218 240 112 159 131 96 2 0 59 64 1 0 0 0 0 10 0 0 0 0 0 0 0 0 0 0 0 0 0 1 1 4 4 7 6 3 2 2 5 3 1 0 1 0 0 0 0 0 0 0
278 240 216 181 170 162 147 120 87 0 0 0 0 0 0 0 0 0 0 0 0 0 0 0 0 0 0 0 0 0 0 0 0 0 0 0 0 0 0 0 0 0 0 0 0 0 0 0 0 0 0 1 1 1 0 0 0 0 0 0 0 0 0
153 7 5 4 40 30 4 3 3 0 0 0 0 0 0 0 0 0 0 0 0 0 0 0 0 0 0 0 0 0 0 0 0 0 0 0 0 0 0 0 0 0 0 0 0 0 0 0 0 0 0 0 0 0 0 0 0 0 0 0 0 0 0
125 0 0 0 0 0 0 0 0 0 0 0 0 0 0 0 0 0 0 0 0 0 0 0 0 0 0 0 0 0 0 0 0 0 0 0 0 0 0 0 0 0 0 0 0 0 0 0 0 0 0 0 0 0 0 0 0 0 0 0 0 0 0
123 161 0 2 2 0 0 0 0 0 0 0 0 0 0 0 0 0 0 0 0 0 0 0 0 0 0 0 0 0 0 0 0 0 0 0 0 0 0 0 0 0 0 0 0 0 0 0 0 0 0 0 0 0 0 0 0 0 0 0 0 0 0
58 77 98 100 115 62 31 14 5 0 0 0 0 0 0 0 0 0 0 0 0 0 0 0 0 0 0 0 0 0 0 0 0 0 0 0 0 0 0 0 0 0 0 0 0 0 0 0 0 0 0 0 0 0 0 0 0 0 0 0 0 0 0
Wind_Speed
15 nan nan nan 13 10 8 9 8 9 10 10 10 10 9 9 9 8 8 7 5 5 5 5 4 5 5 6 6 6 7 8 8 8 7 8 8 8 6 6 5 5 6 5 5 5 5 6 5 5 5 4 4 3 3 3 3 3 2 2 3 3 3
18 nan nan nan 14 12 9 10 10 10 12 11 11 10 11 9 10 9 9 8 6 6 6 6 5 6 6 7 7 6 6 7 7 8 8 7 7 7 8 7 7 6 6 7 6 6 5 4 4 4 4 4 3 4 3 3 3 3 3 2 2 3 3
21 17 nan nan 15 15 13 12 12 11 11 12 12 12 12 11 11 10 10 9 7 6 7 7 7 6 7 7 7 6 6 6 6 6 6 5 4 6 5 6 6 6 6 5 6 6 4 4 4 4 4 5 5 5 5 4 4 4 4 4 3 2 3
25 nan nan 21 19 17 16 15 13 13 13 12 13 13 13 13 12 12 11 9 8 7 7 8 8 7 7 7 6 6 5 4 5 5 5 5 5 5 6 5 6 6 6 6 6 6 7 7 5 5 5 5 5 6 6 6 6 5 5 5 4 4 4
24 21 19 23 24 23 20 18 15 15 14 14 15 15 15 14 13 13 11 10 9 8 8 7 8 7 8 7 7 7 4 3 3 4 5 6 6 7 6 5 4 4 5 6 6 7 7 7 6 6 6 5 5 4 4 5 4 5 6 5 5 5 4
25 22 24 26 27 25 22 18 16 15 15 15 15 16 16 15 14 12 12 11 11 10 10 7 6 8 7 7 6 6 6 5 5 4 5 6 7 7 6 5 4 4 4 5 6 5 5 5 5 6 6 6 5 5 5 5 5 5 5 5 5 5 5
30 25 29 30 30 29 25 21 18 17 17 18 18 18 17 16 14 13 13 13 12 11 10 8 7 8 8 8 8 6 6 6 6 5 5 5 6 6 6 7 6 6 6 7 6 7 6 5 6 7 7 7 8 7 8 8 8 8 7 6 6 5 5
36 33 32 31 29 28 26 23 20 19 20 20 20 19 17 17 16 14 13 13 13 12 11 10 10 10 10 9 9 7 8 7 8 7 7 6 7 6 7 7 8 8 8 7 8 7 6 6 6 7 7 7 8 8 7 7 7 5 6 6 6 5 5
34 37 32 31 31 28 28 26 24 23 21 19 19 19 18 18 17 15 14 13 14 12 12 11 12 13 13 12 11 10 9 9 9 9 8 8 9 8 8 9 9 10 9 8 9 10 8 8 8 10 10 9 10 10 8 8 7 7 6 7 7 6 6
29 38 38 36 35 30 29 29 28 27 23 22 21 20 19 19 18 18 17 15 15 13 13 13 14 15 15 14 12 11 10 11 10 10 11 11 11 10 10 10 11 12 11 10 10 11 12 10 11 13 13 11 11 10 9 10 9 8 8 8 8 8 8
23 33 36 36 35 30 28 31 31 28 26 24 22 22 21 20 20 19 18 17 16 16 16 16 16 17 16 15 13 12 12 12 12 11 12 13 14 13 12 12 13 15 13 12 12 12 14 15 13 14 14 12 12 11 11 11 11 11 9 10 11 10 10
21 29 35 36 35 31 29 31 32 30 28 26 24 24 22 21 21 20 19 18 18 19 20 19 19 18 18 17 15 15 13 13 13 13 14 15 16 15 15 15 15 16 16 14 14 14 13 15 14 15 14 12 12 11 12 12 11 11 10 10 10 11 11
27 34 37 38 35 32 32 33 31 29 28 27 26 25 25 23 22 21 20 19 20 21 21 22 22 21 20 20 18 18 16 16 16 17 17 18 18 18 17 17 17 17 17 17 15 15 14 15 15 15 15 14 12 12 12 12 11 12 11 9 9 9 9
34 40 42 42 36 32 32 31 31 30 28 27 27 26 26 25 24 23 22 21 22 22 23 24 23 23 23 22 22 21 21 20 20 21 21 23 23 21 20 18 19 20 20 19 18 16 15 15 16 17 16 15 15 14 14 13 13 12 12 11 10 9 9
32 43 42 41 38 34 32 31 30 30 30 29 29 27 27 27 25 25 25 24 24 23 23 24 24 24 24 24 23 24 25 26 25 26 25 26 26 24 23 21 21 21 22 22 20 19 18 17 17 17 16 18 17 17 16 15 13 16 17 15 14 14 15
32 49 48 44 41 35 35 35 33 32 31 30 29 29 29 28 27 26 26 26 25 24 24 25 24 25 25 24 25 27 29 29 29 28 28 28 28 27 26 24 22 22 23 23 22 21 21 21 20 19 19 19 20 18 19 16 25 24 30 28 21 14 15
24 50 54 48 46 43 41 40 38 37 35 33 32 30 30 30 29 28 27 26 25 24 24 25 24 25 25 25 27 29 30 30 29 29 28 31 27 28 27 26 25 24 25 24 24 23 24 23 22 21 22 22 21 21 18 25 30 34 34 31 27 19 17
14 36 49 47 46 46 44 42 41 39 39 38 37 35 33 32 30 28 26 25 22 21 22 21 22 22 22 22 24 26 26 26 27 29 31 25 23 24 29 29 27 28 28 26 25 27 25 24 25 26 25 25 24 23 25 33 33 35 33 30 29 26 21
9 21 40 47 45 45 45 44 44 43 41 39 36 34 33 30 28 26 25 23 22 21 20 18 19 20 19 20 22 24 26 28 29 31 29 27 28 30 27 25 26 26 27 27 28 30 31 30 29 25 25 25 27 25 32 33 36 32 31 30 27 26 22
15 19 33 45 51 52 51 48 46 44 44 43 40 36 34 31 28 28 27 25 24 22 22 21 21 21 20 23 24 27 29 31 32 30 29 31 32 29 29 30 28 26 27 30 30 29 28 27 27 29 29 29 31 32 35 36 35 31 30 29 27 24 23
17 20 22 36 52 59 57 55 55 55 53 49 45 41 37 33 32 32 31 29 28 27 27 26 25 24 25 26 28 30 32 33 33 32 31 32 33 33 34 34 34 32 30 30 31 32 29 25 28 31 31 32 30 30 34 34 33 31 28 28 25 23 18
18 22 19 20 37 55 63 59 56 55 53 50 47 45 43 43 41 37 36 34 32 31 30 30 28 28 28 31 34 36 36 37 38 37 34 35 36 36 36 34 34 35 32 30 31 31 30 27 25 29 31 31 32 29 33 35 35 31 28 27 25 20 19
18 22 21 17 20 37 53 54 51 49 50 50 50 49 47 43 42 41 40 38 36 35 33 30 29 30 33 35 37 38 41 43 45 42 39 39 40 41 40 35 37 40 39 35 34 34 32 28 28 31 32 33 32 31 35 35 35 33 31 30 28 22 23
21 25 27 22 16 22 33 37 37 38 39 43 49 51 50 49 49 48 46 45 44 44 43 41 37 31 29 31 33 34 38 40 41 43 44 45 42 41 43 43 42 45 43 40 38 37 36 36 38 40 40 40 38 36 34 36 36 34 33 33 32 26 25
23 27 28 26 21 20 22 24 24 24 24 26 32 37 44 49 50 48 46 44 43 42 41 38 35 33 28 24 30 35 38 38 39 41 45 47 47 47 47 47 47 49 49 49 47 45 41 41 43 44 43 41 40 39 37 36 36 36 36 36 36 32 31
21 28 29 27 26 25 23 22 21 21 22 23 22 23 27 32 36 39 38 37 37 37 35 31 29 28 26 20 28 31 34 36 39 41 41 45 49 52 53 53 54 54 52 50 46 44 43 44 45 46 44 42 39 38 38 37 37 38 39 40 39 37 33
23 26 28 28 28 26 24 23 23 22 23 23 23 21 23 26 30 31 31 31 33 33 30 27 26 28 25 16 20 24 28 32 38 42 45 49 52 55 55 54 56 56 53 50 47 47 47 48 47 47 45 43 41 40 39 37 37 40 42 42 41 40 nan
29 30 32 33 33 29 26 24 25 24 23 23 23 24 25 30 32 31 32 32 32 29 26 27 nan nan 25 25 24 27 31 31 31 33 38 42 44 47 50 51 52 52 50 46 49 51 51 48 46 45 45 43 43 41 39 39 39 37 41 40 nan nan nan
30 29 31 35 35 32 27 25 24 24 22 22 23 24 25 30 33 33 33 37 31 26 27 nan nan nan nan 29 28 29 28 27 26 23 23 25 26 28 34 40 47 51 51 48 47 48 48 46 43 43 43 41 40 40 39 37 36 35 nan nan nan nan nan
31 27 27 31 33 31 28 26 24 23 24 23 23 23 25 28 30 31 33 33 28 30 nan nan nan 32 31 nan nan nan 23 24 nan nan nan nan 17 17 17 19 27 35 37 37 35 34 35 34 34 35 37 37 nan nan 37 34 33 33 33 32 nan nan nan
30 28 25 26 27 26 25 25 25 25 27 25 25 25 27 27 29 30 31 28 28 29 nan nan nan nan nan nan nan 30 28 nan nan nan nan 14 16 nan nan 14 15 nan nan 20 20 18 nan 19 19 nan 27 27 29 33 33 32 31 31 nan nan nan nan nan
31 31 28 25 22 21 21 22 23 25 nan 27 26 26 25 27 29 30 27 26 27 29 29 nan nan nan nan nan nan nan nan nan nan nan nan nan nan nan nan nan nan nan nan nan nan nan nan nan nan nan nan nan nan nan nan nan nan nan nan nan nan nan nan
28 30 29 27 24 21 20 21 22 24 25 25 25 25 25 26 27 26 nan nan nan nan nan nan nan nan nan nan nan nan nan nan nan nan nan nan nan nan nan nan nan nan nan nan nan nan nan nan nan nan nan nan nan nan nan nan nan nan nan nan nan nan nan
26 27 27 26 26 26 26 26 nan nan nan nan nan nan nan nan nan nan nan nan nan nan nan nan nan nan nan nan nan nan nan nan nan nan nan nan nan nan nan nan nan nan nan nan nan nan nan nan nan nan nan nan nan nan nan nan nan nan nan nan nan nan nan
27 nan nan nan nan nan nan nan nan nan nan nan nan nan nan nan nan nan nan nan nan nan nan nan nan nan nan nan nan nan nan nan nan nan nan nan nan nan nan nan nan nan nan nan nan nan nan nan nan nan nan nan nan nan nan nan nan nan nan nan nan nan nan
28 nan nan nan nan nan nan nan nan nan nan nan nan nan nan nan nan nan nan nan nan nan nan nan nan nan nan nan nan nan nan nan nan nan nan nan nan nan nan nan nan nan nan nan nan nan nan nan nan nan nan nan nan nan nan nan nan nan nan nan nan nan nan
31 31 nan nan nan nan nan nan nan nan nan nan nan nan nan nan nan nan nan nan nan nan nan nan nan nan nan nan nan nan nan nan nan nan nan nan nan nan nan nan nan nan nan nan nan nan nan nan nan nan nan nan nan nan nan nan nan nan nan nan nan nan nan
nan nan nan nan 32 nan nan nan nan nan nan nan nan nan nan nan nan nan nan nan nan nan nan nan nan nan nan nan nan nan nan nan nan nan nan nan nan nan nan nan nan nan nan nan nan nan nan nan nan nan nan nan nan nan nan nan nan nan nan nan nan nan nan
Wind_Direction
196 nan nan nan 199 201 199 195 202 209 215 220 221 220 220 214 216 217 220 226 214 210 213 216 206 194 181 172 160 160 154 153 157 151 152 150 154 156 150 152 155 164 161 179 194 182 186 182 182 178 186 191 177 198 184 172 154 146 154 168 157 163 169
200 nan nan nan 196 195 199 198 201 205 213 217 219 221 218 217 216 213 219 229 228 222 221 220 219 205 192 179 181 176 163 156 155 159 159 164 165 159 154 159 160 169 169 174 188 197 193 197 198 194 189 199 194 206 208 210 205 190 195 226 205 203 186
202 197 nan nan 196 195 201 201 199 204 211 214 219 221 218 217 218 216 219 225 234 232 228 230 228 219 206 197 185 187 178 166 162 150 145 152 147 145 165 170 173 175 175 189 186 184 201 187 219 207 200 194 190 225 217 213 222 220 234 237 225 237 250
206 nan nan 195 196 198 203 203 201 205 209 212 220 225 226 223 220 221 220 225 234 239 238 234 236 231 228 217 201 194 186 176 161 156 145 145 163 183 187 196 187 182 200 194 199 193 189 202 205 215 206 196 202 198 207 211 214 230 233 241 234 239 243
206 208 202 201 203 202 203 203 204 208 211 214 218 225 230 232 230 226 225 226 230 238 244 242 238 244 237 239 225 218 215 208 202 173 171 179 189 195 201 196 221 197 209 215 220 216 205 197 193 207 220 217 204 226 222 228 225 228 221 227 231 232 233
204 207 209 210 209 203 198 195 200 210 215 219 223 226 229 233 233 236 235 236 236 238 242 244 244 248 249 252 243 238 244 247 232 223 202 203 209 211 214 220 223 230 240 231 231 239 239 216 198 208 213 227 231 221 226 237 241 237 239 232 226 224 224
207 213 217 216 213 206 201 196 197 207 214 218 222 223 224 229 231 232 236 243 248 251 256 262 254 251 248 244 245 246 247 256 262 259 244 229 232 220 220 229 233 239 236 250 242 241 248 241 226 223 221 209 214 217 228 230 222 229 230 234 238 242 238
209 213 216 218 214 207 202 200 199 207 214 216 220 223 226 228 229 233 238 243 252 258 256 258 261 254 253 247 246 249 252 250 260 260 251 250 248 245 241 239 245 241 243 251 259 258 258 252 248 252 241 238 242 237 236 247 251 237 246 248 250 244 256
216 216 218 218 213 207 204 205 206 209 216 218 222 225 229 229 231 234 239 241 247 251 258 255 257 258 255 253 249 255 255 254 258 259 262 259 251 255 251 256 252 252 254 251 257 269 261 267 261 253 252 247 248 252 252 254 249 251 249 250 252 248 239
228 220 220 218 212 208 207 206 209 210 214 217 220 225 228 229 232 235 238 242 245 253 257 256 254 258 260 257 258 259 256 257 253 262 264 263 255 254 253 252 259 260 258 256 255 264 271 265 266 267 262 257 258 260 253 258 258 253 260 267 263 255 257
229 217 219 219 215 212 210 208 210 212 214 217 221 224 228 231 234 237 240 243 247 248 253 255 254 259 261 261 261 257 255 256 256 258 260 257 254 257 257 255 257 261 259 259 259 261 267 272 268 268 268 263 266 264 261 261 264 263 258 259 263 267 266
226 216 218 221 218 214 211 209 211 213 215 216 220 223 226 228 233 237 238 243 245 249 252 254 254 256 257 256 256 255 255 253 255 253 256 258 255 251 251 255 259 259 262 259 259 260 261 268 271 272 271 265 260 262 262 259 260 263 255 256 268 277 278
221 217 212 219 218 212 209 210 211 214 216 217 220 223 225 227 229 232 234 237 241 243 248 251 252 253 254 254 255 254 254 253 252 250 251 254 253 253 249 251 258 260 260 262 259 262 262 267 268 264 266 267 265 264 267 263 259 256 258 256 264 270 275
217 213 215 218 217 212 212 210 212 215 217 218 221 223 225 225 225 227 231 233 236 239 243 244 249 250 251 252 252 252 254 251 249 248 247 249 251 251 252 249 251 256 258 257 261 260 260 260 268 270 270 271 270 269 267 270 266 269 268 258 245 267 292
222 217 216 214 214 212 211 212 214 218 219 220 222 224 226 226 225 225 227 229 233 236 240 242 245 249 250 250 250 251 251 251 249 248 250 251 253 253 253 250 248 250 250 254 253 255 259 261 260 264 268 269 270 268 268 268 274 259 261 269 266 238 237
230 217 211 210 212 211 210 211 214 216 219 222 224 226 226 225 224 226 227 229 232 234 237 241 244 246 247 249 250 250 252 253 254 255 255 258 259 260 258 254 252 251 252 253 255 253 253 256 261 264 267 269 270 273 269 270 262 260 250 247 250 254 249
237 214 211 209 208 209 210 213 215 216 217 219 221 224 225 225 225 225 226 227 230 231 234 238 241 244 247 248 250 253 254 255 258 259 259 253 255 264 264 263 258 255 254 254 255 255 259 260 263 267 266 265 266 265 267 258 255 250 252 255 249 251 256
256 218 212 213 210 209 210 212 216 218 219 220 221 222 223 224 226 227 229 229 228 227 230 234 240 246 247 250 254 257 259 259 259 259 257 257 251 245 254 264 265 262 259 258 260 260 259 261 262 261 261 262 262 263 259 259 250 250 252 253 251 248 251
271 221 217 217 217 215 213 213 215 217 220 220 222 224 224 224 226 228 231 234 233 233 236 238 245 250 255 257 256 258 260 263 261 259 258 255 253 255 257 256 263 265 261 258 255 256 257 257 258 259 260 259 260 258 261 258 247 247 249 252 249 249 246
251 233 216 218 218 217 215 217 219 219 221 220 219 220 222 222 224 226 231 235 238 242 243 244 249 250 253 257 258 259 261 261 262 263 262 261 262 261 259 257 258 258 259 256 254 251 253 257 258 258 256 254 256 258 258 256 248 244 243 244 242 242 242
241 247 222 209 211 213 212 213 215 217 220 221 220 221 220 222 224 226 229 232 236 239 241 243 245 248 252 257 261 262 260 260 261 264 264 263 265 267 264 258 258 258 256 255 256 252 247 246 258 261 260 258 257 257 256 254 247 245 242 242 241 239 242
237 241 239 215 205 206 209 213 215 216 218 218 218 219 219 220 221 225 228 231 233 237 240 244 250 256 261 264 265 264 263 260 259 260 262 264 262 265 265 265 264 262 262 257 256 255 254 250 250 258 259 257 255 253 255 252 245 241 242 241 239 237 251
251 254 251 231 205 201 205 211 216 218 221 223 222 223 224 224 225 227 229 231 233 237 243 250 259 263 266 266 265 263 259 256 257 256 259 258 259 261 261 255 259 262 259 256 257 257 255 254 253 255 254 252 250 247 250 249 241 237 237 237 233 238 247
248 256 253 242 217 196 199 203 208 211 215 219 220 221 224 227 231 231 232 235 238 242 243 243 242 246 259 266 268 269 264 261 258 258 256 256 255 255 256 255 251 257 255 254 256 256 253 252 253 253 249 246 246 248 251 250 246 242 241 238 237 239 249
250 253 251 244 230 213 207 205 207 211 212 212 214 214 217 222 226 229 230 231 234 235 236 236 236 236 237 254 266 264 262 261 260 256 255 254 252 251 252 253 252 252 250 249 250 250 246 249 253 253 250 248 248 246 249 252 253 249 246 244 243 245 254
258 259 255 250 238 223 212 208 209 218 223 221 217 217 219 221 223 224 225 225 225 227 227 228 228 226 228 242 252 249 254 256 257 255 251 249 246 246 248 248 248 251 251 250 252 256 253 249 250 251 249 248 248 248 248 252 253 251 249 249 248 245 254
258 259 256 257 253 234 216 212 214 220 222 222 222 223 229 232 231 228 229 232 232 231 229 229 228 228 228 230 252 246 250 257 254 247 240 240 242 243 243 243 246 249 251 251 252 254 252 251 252 251 249 250 250 249 249 250 254 258 255 253 251 247 nan
262 259 251 255 259 245 228 222 226 231 230 229 226 226 230 238 239 237 236 236 235 235 231 229 nan nan 223 237 243 249 256 260 258 253 248 246 246 245 241 239 242 246 248 247 250 253 253 253 253 250 250 252 252 251 254 254 254 260 259 253 nan nan nan
266 263 256 253 253 249 244 241 236 228 228 222 221 227 233 241 241 240 239 240 236 232 233 nan nan nan nan 238 241 244 243 247 254 254 249 248 251 251 246 244 245 246 247 249 251 254 254 252 253 254 254 255 254 253 252 254 256 252 nan nan nan nan nan
263 265 260 252 251 251 253 255 251 247 245 243 233 229 235 238 240 240 244 246 244 248 nan nan nan 245 247 nan nan nan 239 245 nan nan nan nan 249 250 249 245 242 241 242 246 249 252 253 252 253 255 255 254 nan nan 247 248 248 257 253 253 nan nan nan
258 261 265 262 256 256 259 264 265 260 257 256 253 252 253 252 254 257 259 261 262 263 nan nan nan nan nan nan nan 252 255 nan nan nan nan 235 250 nan nan 253 241 nan nan 248 254 260 nan 257 253 nan 248 246 246 244 244 245 245 248 nan nan nan nan nan
257 259 267 269 265 261 262 268 270 267 nan 264 263 263 263 262 261 264 267 266 264 264 261 nan nan nan nan nan nan nan nan nan nan nan nan nan nan nan nan nan nan nan nan nan nan nan nan nan nan nan nan nan nan nan nan nan nan nan nan nan nan nan nan
258 258 263 266 265 264 260 264 268 267 266 265 263 264 266 265 262 264 nan nan nan nan nan nan nan nan nan nan nan nan nan nan nan nan nan nan nan nan nan nan nan nan nan nan nan nan nan nan nan nan nan nan nan nan nan nan nan nan nan nan nan nan nan
256 257 257 260 260 258 258 259 nan nan nan nan nan nan nan nan nan nan nan nan nan nan nan nan nan nan nan nan nan nan nan nan nan nan nan nan nan nan nan nan nan nan nan nan nan nan nan nan nan nan nan nan nan nan nan nan nan nan nan nan nan nan nan
248 nan nan nan nan nan nan nan nan nan nan nan nan nan nan nan nan nan nan nan nan nan nan nan nan nan nan nan nan nan nan nan nan nan nan nan nan nan nan nan nan nan nan nan nan nan nan nan nan nan nan nan nan nan nan nan nan nan nan nan nan nan nan
243 nan nan nan nan nan nan nan nan nan nan nan nan nan nan nan nan nan nan nan nan nan nan nan nan nan nan nan nan nan nan nan nan nan nan nan nan nan nan nan nan nan nan nan nan nan nan nan nan nan nan nan nan nan nan nan nan nan nan nan nan nan nan
248 249 nan nan nan nan nan nan nan nan nan nan nan nan nan nan nan nan nan nan nan nan nan nan nan nan nan nan nan nan nan nan nan nan nan nan nan nan nan nan nan nan nan nan nan nan nan nan nan nan nan nan nan nan nan nan nan nan nan nan nan nan nan
nan nan nan nan 251 nan nan nan nan nan nan nan nan nan nan nan nan nan nan nan nan nan nan nan nan nan nan nan nan nan nan nan nan nan nan nan nan nan nan nan nan nan nan nan nan nan nan nan nan nan nan nan nan nan nan nan nan nan nan nan nan nan nan